Regional Weather Roundup
Issued by NWS

Home | Current Version | Previous Version | Graphics & Text | Print | Product List | Glossary On
Versions: 1 2 3 4 5 6 7 8 9 10 11 12 13 14 15 16 17 18 19 20 21 22 23 24 25 26 27 28 29 30 31 32 33 34 35 36 37 38 39 40 41 42 43 44 45 46 47 48 49 50
022
ASUS43 KFSD 251702
RWRSD

WEATHER ROUNDUP FOR SOUTH DAKOTA
NATIONAL WEATHER SERVICE SIOUX FALLS SD
1200 PM CDT THU AUG 25 2016

NOTE: "FAIR" INDICATES FEW OR NO CLOUDS BELOW 12,000 FEET WITH NO
SIGNIFICANT WEATHER AND/OR OBSTRUCTIONS TO VISIBILITY.


SDZ001>005-009-010-012>017-251800-
NORTHWEST AND NORTH CENTRAL SOUTH DAKOTA

CITY           SKY/WX    TMP DP  RH WIND       PRES   REMARKS
BUFFALO          N/A     62  44  51 NW20      30.20S
FAITH            N/A     61  46  57 NW14      30.24R
MOBRIDGE       CLOUDY    64  46  52 NW13G18   30.16S
$$

SDZ012>016-024>037-041>051-057-063-072>074-251800-
SOUTHWEST AND SOUTH CENTRAL SOUTH DAKOTA

CITY           SKY/WX    TMP DP  RH WIND       PRES   REMARKS
RAPID CTY ARPT CLOUDY    62  44  51 W6        30.30F
PIERRE         SUNNY     65  47  52 NW15      30.21S
CUSTER         PTSUNNY   57  43  59 VRB3      30.32F
ELLSWORTH AFB  PTSUNNY   61  45  55 N14G21    30.29F
PHILIP         CLOUDY    66  46  48 NW14      30.26S
PINE RIDGE     CLOUDY    55  49  80 CALM      30.32F
WINNER         FAIR      68  50  52 NW14G22   30.24R
$$

SDZ004>011-016>023-039-040-251800-
NORTHEAST SOUTH DAKOTA

CITY           SKY/WX    TMP DP  RH WIND       PRES   REMARKS
ABERDEEN       CLOUDY    64  48  56 W16       30.14S
WATERTOWN      PTSUNNY   64  52  64 W10       30.13S
BROOKINGS      PTSUNNY   63  52  67 W10       30.15S
$$

SDZ017-020-022-023-036>040-048>070-251800-
SOUTHEAST SOUTH DAKOTA

CITY           SKY/WX    TMP DP  RH WIND       PRES   REMARKS
SIOUX FALLS    CLOUDY    67  54  63 NW13      30.16S
HURON          SUNNY     67  50  54 NW14G21   30.16F
CHAMBERLAIN    SUNNY     69  50  51 NW13      30.22S
MITCHELL       MOSUNNY   67  53  61 NW12G17   30.19F
YANKTON        CLOUDY    64  52  63 W10       30.18S
$$

ABBREVIATIONS USED IN REMARKS
   TC - TEMPERATURE IN CELSIUS
  WCI - WIND CHILL INDEX
   HX - HEAT INDEX
  VSB - VISIBILITY





USA.gov is the U.S. government's official web portal to all federal, state and local government web resources and services.